EZY85T EGAA-EGNT

Flight info

Callsign EZY85T
Flight time 0h 35m
Altitude 21000
Route BLACA
Aircraft A320/M-SDE3FGHIRWY/LB1

Departure

Time 2026-05-04 15:35
Airport Belfast International Airport (EGAA)

Arrival

Time 2026-05-04 16:11
Airport Newcastle International Airport (EGNT)
Time Latitude Longitude Altitude Speed Heading
2026-05-04 15:16 54.65954 -6.21778 275 ft 0 kts 278°
2026-05-04 15:28 54.65952 -6.21757 275 ft 4 kts 278°
2026-05-04 15:28 54.65943 -6.21671 275 ft 4 kts 311°
2026-05-04 15:29 54.65927 -6.21661 274 ft 4 kts 29°
2026-05-04 15:30 54.65895 -6.21717 272 ft 0 kts 65°
2026-05-04 15:32 54.65939 -6.21557 276 ft 15 kts 65°
2026-05-04 15:32 54.66046 -6.21159 272 ft 23 kts 65°
2026-05-04 15:33 54.66197 -6.20599 272 ft 23 kts 65°
2026-05-04 15:34 54.66395 -6.19840 272 ft 19 kts 84°
2026-05-04 15:34 54.66306 -6.19666 272 ft 22 kts 155°
2026-05-04 15:34 54.66219 -6.19837 274 ft 15 kts 245°
2026-05-04 15:35 54.65608 -6.22097 416 ft 174 kts 245°
2026-05-04 15:35 54.65082 -6.24037 1373 ft 184 kts 245°
2026-05-04 15:35 54.64539 -6.26077 2376 ft 194 kts 246°
2026-05-04 15:36 54.63026 -6.29963 4503 ft 203 kts 213°
2026-05-04 15:36 54.61649 -6.30727 5233 ft 221 kts 182°
2026-05-04 15:36 54.60111 -6.29872 5744 ft 254 kts 142°
2026-05-04 15:37 54.59076 -6.27209 6314 ft 290 kts 105°
2026-05-04 15:37 54.59104 -6.23621 7196 ft 307 kts 78°
2026-05-04 15:37 54.59763 -6.20216 8884 ft 293 kts 67°
2026-05-04 15:37 54.60560 -6.16998 10342 ft 293 kts 66°
2026-05-04 15:38 54.61435 -6.13661 11075 ft 318 kts 65°
2026-05-04 15:38 54.62417 -6.10067 11687 ft 342 kts 64°
2026-05-04 15:38 54.63466 -6.06308 11942 ft 350 kts 64°
2026-05-04 15:38 54.64534 -6.02520 12008 ft 351 kts 64°
2026-05-04 15:39 54.65607 -5.98726 12009 ft 351 kts 64°
2026-05-04 15:39 54.66676 -5.94929 12435 ft 361 kts 64°
2026-05-04 15:39 54.68857 -5.87109 14746 ft 364 kts 64°
2026-05-04 15:40 54.69958 -5.83137 15731 ft 369 kts 64°
2026-05-04 15:40 54.71078 -5.79094 16680 ft 374 kts 64°
2026-05-04 15:40 54.72210 -5.75003 17593 ft 379 kts 64°
2026-05-04 15:40 54.73354 -5.70860 18488 ft 385 kts 64°
2026-05-04 15:41 54.74512 -5.66661 19347 ft 390 kts 64°
2026-05-04 15:41 54.75688 -5.62403 20198 ft 395 kts 64°
2026-05-04 15:41 54.76878 -5.58085 20761 ft 399 kts 64°
2026-05-04 15:41 54.78069 -5.53749 20954 ft 400 kts 64°
2026-05-04 15:42 54.79265 -5.49378 21010 ft 416 kts 64°
2026-05-04 15:42 54.80515 -5.44792 21011 ft 424 kts 64°
2026-05-04 15:42 54.81774 -5.40162 21008 ft 425 kts 64°
2026-05-04 15:42 54.83034 -5.35519 21010 ft 426 kts 65°
2026-05-04 15:43 54.84294 -5.30866 21008 ft 426 kts 65°
2026-05-04 15:43 54.85550 -5.26211 21008 ft 426 kts 65°
2026-05-04 15:43 54.86804 -5.21559 21010 ft 426 kts 65°
2026-05-04 15:43 54.87941 -5.16800 21008 ft 426 kts 72°
2026-05-04 15:44 54.88634 -5.11809 21009 ft 427 kts 81°
2026-05-04 15:44 54.89011 -5.06682 21011 ft 427 kts 83°
2026-05-04 15:44 54.89377 -5.01550 21013 ft 427 kts 83°
2026-05-04 15:44 54.89742 -4.96443 21015 ft 427 kts 83°
2026-05-04 15:45 54.90113 -4.91318 21015 ft 427 kts 83°
2026-05-04 15:45 54.90487 -4.86205 21014 ft 427 kts 83°
2026-05-04 15:45 54.90859 -4.81090 21009 ft 426 kts 83°
2026-05-04 15:45 54.91227 -4.75994 21007 ft 427 kts 83°
2026-05-04 15:46 54.91593 -4.70870 21006 ft 427 kts 83°
2026-05-04 15:46 54.91957 -4.65751 21006 ft 427 kts 83°
2026-05-04 15:46 54.92316 -4.60625 21007 ft 427 kts 83°
2026-05-04 15:46 54.92670 -4.55502 21009 ft 427 kts 83°
2026-05-04 15:47 54.93021 -4.50382 21010 ft 427 kts 83°
2026-05-04 15:47 54.93370 -4.45252 21012 ft 427 kts 83°
2026-05-04 15:47 54.93716 -4.40125 21013 ft 427 kts 83°
2026-05-04 15:47 54.94058 -4.35000 21013 ft 427 kts 83°
2026-05-04 15:48 54.94400 -4.29871 21007 ft 427 kts 83°
2026-05-04 15:48 54.94739 -4.24808 21005 ft 427 kts 83°
2026-05-04 15:48 54.95416 -4.14550 21004 ft 427 kts 83°
2026-05-04 15:49 54.95751 -4.09415 21002 ft 427 kts 83°
2026-05-04 15:49 54.96082 -4.04290 21003 ft 427 kts 83°
2026-05-04 15:49 54.96411 -3.99143 21004 ft 427 kts 83°
2026-05-04 15:49 54.96739 -3.94016 21004 ft 427 kts 83°
2026-05-04 15:50 54.97063 -3.88890 21004 ft 427 kts 84°
2026-05-04 15:50 54.97388 -3.83748 21005 ft 427 kts 84°
2026-05-04 15:50 54.97713 -3.78609 21005 ft 426 kts 84°
2026-05-04 15:50 54.98032 -3.73478 21004 ft 426 kts 84°
2026-05-04 15:51 54.98346 -3.68350 21002 ft 426 kts 84°
2026-05-04 15:51 54.98661 -3.63220 21002 ft 426 kts 84°
2026-05-04 15:51 54.98975 -3.58084 21003 ft 426 kts 84°
2026-05-04 15:51 54.99284 -3.53021 21005 ft 426 kts 84°
2026-05-04 15:52 54.99595 -3.47877 21002 ft 426 kts 84°
2026-05-04 15:52 54.99902 -3.42751 21001 ft 426 kts 84°
2026-05-04 15:52 55.00206 -3.37624 21000 ft 426 kts 84°
2026-05-04 15:52 55.00508 -3.32491 20998 ft 426 kts 84°
2026-05-04 15:53 55.00808 -3.27367 20997 ft 425 kts 84°
2026-05-04 15:53 55.01108 -3.22234 20996 ft 425 kts 84°
2026-05-04 15:53 55.01406 -3.17102 20994 ft 425 kts 84°
2026-05-04 15:53 55.01702 -3.11972 20994 ft 426 kts 84°
2026-05-04 15:54 55.01995 -3.06842 20994 ft 426 kts 84°
2026-05-04 15:54 55.02284 -3.01714 20994 ft 426 kts 84°
2026-05-04 15:54 55.02569 -2.96582 20995 ft 426 kts 84°
2026-05-04 15:54 55.02848 -2.91488 20776 ft 415 kts 84°
2026-05-04 15:55 55.03118 -2.86526 20083 ft 409 kts 84°
2026-05-04 15:55 55.03384 -2.81611 19368 ft 404 kts 84°
2026-05-04 15:55 55.03644 -2.76822 18679 ft 400 kts 84°
2026-05-04 15:55 55.03905 -2.72014 17981 ft 396 kts 84°
2026-05-04 15:56 55.04158 -2.67261 17286 ft 392 kts 84°
2026-05-04 15:56 55.04406 -2.62546 16584 ft 389 kts 85°
2026-05-04 15:56 55.04649 -2.57875 15899 ft 385 kts 85°
2026-05-04 15:56 55.04890 -2.53255 15218 ft 381 kts 85°
2026-05-04 15:57 55.05131 -2.48676 14532 ft 377 kts 85°
2026-05-04 15:57 55.05367 -2.44143 13846 ft 373 kts 85°
2026-05-04 15:57 55.05597 -2.39661 13151 ft 369 kts 85°
2026-05-04 15:57 55.05824 -2.35205 12441 ft 366 kts 85°
2026-05-04 15:58 55.06047 -2.30816 11715 ft 362 kts 85°
2026-05-04 15:58 55.06292 -2.26470 10987 ft 358 kts 80°
2026-05-04 15:58 55.06921 -2.22303 10301 ft 353 kts 72°
2026-05-04 15:58 55.07699 -2.18353 10074 ft 335 kts 70°
2026-05-04 15:59 55.08457 -2.14643 9997 ft 313 kts 70°
2026-05-04 15:59 55.09166 -2.11175 10009 ft 296 kts 70°
2026-05-04 15:59 55.09853 -2.07814 10014 ft 293 kts 70°
2026-05-04 15:59 55.10527 -2.04515 10006 ft 292 kts 70°
2026-05-04 16:00 55.11208 -2.01180 10008 ft 292 kts 70°
2026-05-04 16:00 55.11889 -1.97842 10012 ft 292 kts 70°
2026-05-04 16:00 55.12568 -1.94509 10006 ft 291 kts 70°
2026-05-04 16:00 55.13248 -1.91167 10010 ft 291 kts 70°
2026-05-04 16:01 55.13927 -1.87832 10014 ft 291 kts 70°
2026-05-04 16:01 55.14605 -1.84497 10002 ft 291 kts 70°
2026-05-04 16:01 55.15278 -1.81183 9611 ft 288 kts 70°
2026-05-04 16:01 55.15946 -1.77892 9252 ft 288 kts 70°
2026-05-04 16:02 55.16614 -1.74598 8782 ft 286 kts 70°
2026-05-04 16:02 55.17277 -1.71324 8305 ft 284 kts 70°
2026-05-04 16:02 55.18586 -1.64859 7351 ft 279 kts 70°
2026-05-04 16:03 55.19229 -1.61673 6826 ft 278 kts 70°
2026-05-04 16:03 55.19873 -1.58483 6233 ft 273 kts 70°
2026-05-04 16:03 55.20476 -1.55495 6033 ft 246 kts 70°
2026-05-04 16:03 55.21019 -1.52795 5603 ft 236 kts 70°
2026-05-04 16:04 55.21561 -1.50102 4999 ft 234 kts 70°
2026-05-04 16:04 55.21375 -1.44756 3789 ft 227 kts 127°
2026-05-04 16:04 55.20169 -1.43035 3186 ft 224 kts 153°
2026-05-04 16:05 55.18742 -1.41955 2585 ft 223 kts 160°
2026-05-04 16:05 55.17352 -1.41045 2485 ft 201 kts 160°
2026-05-04 16:05 55.14833 -1.39421 2483 ft 188 kts 160°
2026-05-04 16:06 55.13601 -1.38659 2487 ft 187 kts 165°
2026-05-04 16:06 55.11063 -1.41348 2474 ft 184 kts 250°
2026-05-04 16:07 55.10362 -1.44085 2494 ft 185 kts 245°
2026-05-04 16:07 55.08745 -1.50213 2343 ft 185 kts 246°
2026-05-04 16:08 55.08226 -1.52186 2132 ft 175 kts 246°
2026-05-04 16:08 55.06787 -1.57649 1503 ft 155 kts 246°
2026-05-04 16:09 55.05919 -1.60936 1094 ft 146 kts 245°
2026-05-04 16:09 55.05074 -1.64139 693 ft 145 kts 246°
2026-05-04 16:10 55.04232 -1.67321 300 ft 144 kts 245°
2026-05-04 16:11 55.03580 -1.69840 261 ft 22 kts 267°
2026-05-04 16:11 55.03589 -1.70078 263 ft 21 kts 275°
2026-05-04 16:12 55.03770 -1.70424 268 ft 17 kts 359°
2026-05-04 16:12 55.03761 -1.70758 268 ft 9 kts 182°
2026-05-04 16:13 55.03734 -1.70761 268 ft 0 kts 184°